Location: Austin
(30.3000°N, 97.7500°W)
Time: 10:44:29
(UTC-05:00)

Cosmos 1743 - Pass Details

Date: 26 May 2023
Orbit: 496 x 509 km, 82.6° (Epoch: 30 May)

Event Time Altitude Azimuth Distance (km) Brightness Sun altitude
Rises 21:51:26 0° 5° (N) 2,618 6.8 -16.8°
Reaches altitude 10° 21:53:43 10° 15° (NNE) 1,729 5.6 -17.1°
Maximum altitude 21:57:10 33° 81° (E) 866 3.5 -17.7°
Enters shadow 21:57:17 33° 85° (E) 867 3.4 -17.7°
